Find Starlink 36106

NORAD ID: 67018 Int'l Des: 2025-293 Owner: SPXS Country: US Constellation: starlink operational
LEOCIRCULAR

Live Position

Loading 3D Globe...

About Starlink 36106

Description loading...

Upcoming Passes

Passes for default location (London). Set your location on the main map for personalized predictions.

Altitude History

Loading altitude history...

Two-Line Element Set

1 67018U 25293R 26105.15840293 .00001662 00000-0 14704-3 0 9993
2 67018 70.0027 2.3776 0002773 270.2577 89.8264 14.98336061 20352
Epoch: Apr 15, 2026 • Age: 7 hours

Current Status

Altitude 584.7 km
Velocity 7.57 km/s
Sub-Earth Point 65.84°N, 124.17°E
Launch Date Dec 10, 2025
Age 0.3 years
Type internet

Technical Details

Classification Payload
Mass 575.00 kg
Dry Mass 530.00 kg
Total Mass 575.00 kg
Length 0.30 m
Diameter 4.10 m
Span 29.00 m
Shape Box + pan
Manufacturer SPXS
Bus Type Starlink V2MO
Phase Status In Orbit
Owner/State SPXS/US

Most Searched